owner,sensor,date,latitude,longitude,vertical_datum,sea_water_temperature,qcFlag 
NERRS,ioos:station:NOAA.NERRS:apaebwq:1,2014-07-01T16:45:00Z,29.7858,-84.8752,0.0,30.1,2 
NERRS,ioos:station:NOAA.NERRS:apaebwq:1,2014-07-01T20:45:00Z,29.7858,-84.8752,0.0,30.8,2 
NERRS,ioos:station:NOAA.NERRS:apaebwq:1,2014-07-01T23:45:00Z,29.7858,-84.8752,0.0,30.5,2 
NERRS,ioos:station:NOAA.NERRS:apaebwq:1,2014-07-02T22:45:00Z,29.7858,-84.8752,0.0,30.9,2 
NERRS,ioos:station:NOAA.NERRS:apaebwq:1,2014-07-02T23:45:00Z,29.7858,-84.8752,0.0,30.8,2 
NERRS,ioos:station:NOAA.NERRS:apaebwq:1,2014-07-03T00:45:00Z,29.7858,-84.8752,0.0,30.6,2 
NERRS,ioos:station:NOAA.NERRS:apaebwq:1,2014-07-03T02:45:00Z,29.7858,-84.8752,0.0,30.6,2 
NERRS,ioos:station:NOAA.NERRS:apaebwq:1,2014-07-03T03:45:00Z,29.7858,-84.8752,0.0,30.6,2 
NERRS,ioos:station:NOAA.NERRS:apaebwq:1,2014-07-03T04:45:00Z,29.7858,-84.8752,0.0,30.4,2 
NERRS,ioos:station:NOAA.NERRS:apaebwq:1,2014-07-03T05:45:00Z,29.7858,-84.8752,0.0,30.4,2 
NERRS,ioos:station:NOAA.NERRS:apaebwq:1,2014-07-03T06:45:00Z,29.7858,-84.8752,0.0,30.3,2 
NERRS,ioos:station:NOAA.NERRS:apaebwq:1,2014-07-03T07:45:00Z,29.7858,-84.8752,0.0,30.2,2 
NERRS,ioos:station:NOAA.NERRS:apaebwq:1,2014-07-03T08:45:00Z,29.7858,-84.8752,0.0,30.0,2 
NERRS,ioos:station:NOAA.NERRS:apaebwq:1,2014-07-03T09:45:00Z,29.7858,-84.8752,0.0,29.9,2 
NERRS,ioos:station:NOAA.NERRS:apaebwq:1,2014-07-03T10:45:00Z,29.7858,-84.8752,0.0,29.5,2 
NERRS,ioos:station:NOAA.NERRS:apaebwq:1,2014-07-03T12:45:00Z,29.7858,-84.8752,0.0,29.1,2 
NERRS,ioos:station:NOAA.NERRS:apaebwq:1,2014-07-03T13:45:00Z,29.7858,-84.8752,0.0,28.9,2 
NERRS,ioos:station:NOAA.NERRS:apaebwq:1,2014-07-03T14:45:00Z,29.7858,-84.8752,0.0,29.0,2 
NERRS,ioos:station:NOAA.NERRS:apaebwq:1,2014-07-03T16:45:00Z,29.7858,-84.8752,0.0,29.1,2 
NERRS,ioos:station:NOAA.NERRS:apaebwq:1,2014-07-03T17:45:00Z,29.7858,-84.8752,0.0,29.4,2 
NERRS,ioos:station:NOAA.NERRS:apaebwq:1,2014-07-03T18:45:00Z,29.7858,-84.8752,0.0,29.8,2 
NERRS,ioos:station:NOAA.NERRS:apaebwq:1,2014-07-03T20:45:00Z,29.7858,-84.8752,0.0,31.1,2 
NERRS,ioos:station:NOAA.NERRS:apaebwq:1,2014-07-03T22:45:00Z,29.7858,-84.8752,0.0,31.2,2 
NERRS,ioos:station:NOAA.NERRS:apaebwq:1,2014-07-03T23:45:00Z,29.7858,-84.8752,0.0,31.3,2 
NERRS,ioos:station:NOAA.NERRS:apaebwq:1,2014-07-04T00:45:00Z,29.7858,-84.8752,0.0,31.1,2 
NERRS,ioos:station:NOAA.NERRS:apaebwq:1,2014-07-04T01:45:00Z,29.7858,-84.8752,0.0,30.9,2 
NERRS,ioos:station:NOAA.NERRS:apaebwq:1,2014-07-04T02:45:00Z,29.7858,-84.8752,0.0,30.9,2 
NERRS,ioos:station:NOAA.NERRS:apaebwq:1,2014-07-04T03:45:00Z,29.7858,-84.8752,0.0,31.1,2 
NERRS,ioos:station:NOAA.NERRS:apaebwq:1,2014-07-04T04:45:00Z,29.7858,-84.8752,0.0,30.7,2 
NERRS,ioos:station:NOAA.NERRS:apaebwq:1,2014-07-04T06:45:00Z,29.7858,-84.8752,0.0,30.6,2 
NERRS,ioos:station:NOAA.NERRS:apaebwq:1,2014-07-04T07:45:00Z,29.7858,-84.8752,0.0,30.5,2 
NERRS,ioos:station:NOAA.NERRS:apaebwq:1,2014-07-04T08:45:00Z,29.7858,-84.8752,0.0,30.3,2 
NERRS,ioos:station:NOAA.NERRS:apaebwq:1,2014-07-04T09:45:00Z,29.7858,-84.8752,0.0,30.1,2 
NERRS,ioos:station:NOAA.NERRS:apaebwq:1,2014-07-04T10:45:00Z,29.7858,-84.8752,0.0,29.9,2 
NERRS,ioos:station:NOAA.NERRS:apaebwq:1,2014-07-04T11:45:00Z,29.7858,-84.8752,0.0,29.7,2 
NERRS,ioos:station:NOAA.NERRS:apaebwq:1,2014-07-04T12:45:00Z,29.7858,-84.8752,0.0,29.5,2 
NERRS,ioos:station:NOAA.NERRS:apaebwq:1,2014-07-04T13:45:00Z,29.7858,-84.8752,0.0,29.4,2 
NERRS,ioos:station:NOAA.NERRS:apaebwq:1,2014-07-04T14:45:00Z,29.7858,-84.8752,0.0,29.4,2 
NERRS,ioos:station:NOAA.NERRS:apaebwq:1,2014-07-04T15:45:00Z,29.7858,-84.8752,0.0,29.5,2 
NERRS,ioos:station:NOAA.NERRS:apaebwq:1,2014-07-04T16:45:00Z,29.7858,-84.8752,0.0,29.4,2 
NERRS,ioos:station:NOAA.NERRS:apaebwq:1,2014-07-04T17:45:00Z,29.7858,-84.8752,0.0,29.7,2 
NERRS,ioos:station:NOAA.NERRS:apaebwq:1,2014-07-04T18:45:00Z,29.7858,-84.8752,0.0,29.9,2 
NERRS,ioos:station:NOAA.NERRS:apaebwq:1,2014-07-04T19:45:00Z,29.7858,-84.8752,0.0,29.9,2 
NERRS,ioos:station:NOAA.NERRS:apaebwq:1,2014-07-04T20:45:00Z,29.7858,-84.8752,0.0,30.2,2 
NERRS,ioos:station:NOAA.NERRS:apaebwq:1,2014-07-04T21:45:00Z,29.7858,-84.8752,0.0,30.6,2 
NERRS,ioos:station:NOAA.NERRS:apaebwq:1,2014-07-04T22:45:00Z,29.7858,-84.8752,0.0,30.8,2 
NERRS,ioos:station:NOAA.NERRS:apaebwq:1,2014-07-04T23:45:00Z,29.7858,-84.8752,0.0,31.0,2 
NERRS,ioos:station:NOAA.NERRS:apaebwq:1,2014-07-05T01:45:00Z,29.7858,-84.8752,0.0,30.6,2 
NERRS,ioos:station:NOAA.NERRS:apaebwq:1,2014-07-05T02:45:00Z,29.7858,-84.8752,0.0,30.5,2 
NERRS,ioos:station:NOAA.NERRS:apaebwq:1,2014-07-05T03:45:00Z,29.7858,-84.8752,0.0,30.6,2 
NERRS,ioos:station:NOAA.NERRS:apaebwq:1,2014-07-05T04:45:00Z,29.7858,-84.8752,0.0,30.5,2 
NERRS,ioos:station:NOAA.NERRS:apaebwq:1,2014-07-05T05:45:00Z,29.7858,-84.8752,0.0,30.3,2 
NERRS,ioos:station:NOAA.NERRS:apaebwq:1,2014-07-05T06:45:00Z,29.7858,-84.8752,0.0,30.1,2 
NERRS,ioos:station:NOAA.NERRS:apaebwq:1,2014-07-05T07:45:00Z,29.7858,-84.8752,0.0,29.9,2 
NERRS,ioos:station:NOAA.NERRS:apaebwq:1,2014-07-05T08:45:00Z,29.7858,-84.8752,0.0,29.8,2 
NERRS,ioos:station:NOAA.NERRS:apaebwq:1,2014-07-05T09:45:00Z,29.7858,-84.8752,0.0,29.3,2 
NERRS,ioos:station:NOAA.NERRS:apaebwq:1,2014-07-05T10:45:00Z,29.7858,-84.8752,0.0,29.1,2 
NERRS,ioos:station:NOAA.NERRS:apaebwq:1,2014-07-05T11:45:00Z,29.7858,-84.8752,0.0,28.8,2 
NERRS,ioos:station:NOAA.NERRS:apaebwq:1,2014-07-05T12:45:00Z,29.7858,-84.8752,0.0,28.5,2 
NERRS,ioos:station:NOAA.NERRS:apaebwq:1,2014-07-05T13:45:00Z,29.7858,-84.8752,0.0,28.5,2 
NERRS,ioos:station:NOAA.NERRS:apaebwq:1,2014-07-05T14:45:00Z,29.7858,-84.8752,0.0,28.5,2 
NERRS,ioos:station:NOAA.NERRS:apaebwq:1,2014-07-05T15:45:00Z,29.7858,-84.8752,0.0,28.5,2 
NERRS,ioos:station:NOAA.NERRS:apaebwq:1,2014-07-05T16:45:00Z,29.7858,-84.8752,0.0,28.5,2 
NERRS,ioos:station:NOAA.NERRS:apaebwq:1,2014-07-05T17:45:00Z,29.7858,-84.8752,0.0,28.6,2 
NERRS,ioos:station:NOAA.NERRS:apaebwq:1,2014-07-05T18:45:00Z,29.7858,-84.8752,0.0,29.1,2 
NERRS,ioos:station:NOAA.NERRS:apaebwq:1,2014-07-05T19:45:00Z,29.7858,-84.8752,0.0,30.1,2 
NERRS,ioos:station:NOAA.NERRS:apaebwq:1,2014-07-05T20:45:00Z,29.7858,-84.8752,0.0,30.7,2 
NERRS,ioos:station:NOAA.NERRS:apaebwq:1,2014-07-05T21:45:00Z,29.7858,-84.8752,0.0,30.8,2 
NERRS,ioos:station:NOAA.NERRS:apaebwq:1,2014-07-05T22:45:00Z,29.7858,-84.8752,0.0,30.8,2 
NERRS,ioos:station:NOAA.NERRS:apaebwq:1,2014-07-05T23:45:00Z,29.7858,-84.8752,0.0,30.8,2 
NERRS,ioos:station:NOAA.NERRS:apaebwq:1,2014-07-06T00:45:00Z,29.7858,-84.8752,0.0,30.5,2 
NERRS,ioos:station:NOAA.NERRS:apaebwq:1,2014-07-06T01:45:00Z,29.7858,-84.8752,0.0,30.3,2 
NERRS,ioos:station:NOAA.NERRS:apaebwq:1,2014-07-06T02:45:00Z,29.7858,-84.8752,0.0,30.1,2 
NERRS,ioos:station:NOAA.NERRS:apaebwq:1,2014-07-06T03:45:00Z,29.7858,-84.8752,0.0,29.8,2 
NERRS,ioos:station:NOAA.NERRS:apaebwq:1,2014-07-06T04:45:00Z,29.7858,-84.8752,0.0,29.7,2 
NERRS,ioos:station:NOAA.NERRS:apaebwq:1,2014-07-06T06:45:00Z,29.7858,-84.8752,0.0,29.5,2 
NERRS,ioos:station:NOAA.NERRS:apaebwq:1,2014-07-06T07:45:00Z,29.7858,-84.8752,0.0,29.5,2 
NERRS,ioos:station:NOAA.NERRS:apaebwq:1,2014-07-06T08:45:00Z,29.7858,-84.8752,0.0,29.5,2 
NERRS,ioos:station:NOAA.NERRS:apaebwq:1,2014-07-06T09:45:00Z,29.7858,-84.8752,0.0,29.3,2 
NERRS,ioos:station:NOAA.NERRS:apaebwq:1,2014-07-06T10:45:00Z,29.7858,-84.8752,0.0,29.1,2 
NERRS,ioos:station:NOAA.NERRS:apaebwq:1,2014-07-06T11:45:00Z,29.7858,-84.8752,0.0,28.6,2 
NERRS,ioos:station:NOAA.NERRS:apaebwq:1,2014-07-06T12:45:00Z,29.7858,-84.8752,0.0,28.6,2 
NERRS,ioos:station:NOAA.NERRS:apaebwq:1,2014-07-06T13:45:00Z,29.7858,-84.8752,0.0,28.9,2 
NERRS,ioos:station:NOAA.NERRS:apaebwq:1,2014-07-06T14:45:00Z,29.7858,-84.8752,0.0,28.8,2 
NERRS,ioos:station:NOAA.NERRS:apaebwq:1,2014-07-06T16:45:00Z,29.7858,-84.8752,0.0,28.7,2 
NERRS,ioos:station:NOAA.NERRS:apaebwq:1,2014-07-06T17:45:00Z,29.7858,-84.8752,0.0,28.9,2 
NERRS,ioos:station:NOAA.NERRS:apaebwq:1,2014-07-06T18:45:00Z,29.7858,-84.8752,0.0,29.6,2 
NERRS,ioos:station:NOAA.NERRS:apaebwq:1,2014-07-06T19:45:00Z,29.7858,-84.8752,0.0,30.2,2 
NERRS,ioos:station:NOAA.NERRS:apaebwq:1,2014-07-06T20:45:00Z,29.7858,-84.8752,0.0,30.8,2 
NERRS,ioos:station:NOAA.NERRS:apaebwq:1,2014-07-06T21:45:00Z,29.7858,-84.8752,0.0,30.9,2 
NERRS,ioos:station:NOAA.NERRS:apaebwq:1,2014-07-06T22:45:00Z,29.7858,-84.8752,0.0,30.8,2 
NERRS,ioos:station:NOAA.NERRS:apaebwq:1,2014-07-06T23:45:00Z,29.7858,-84.8752,0.0,30.7,2 
NERRS,ioos:station:NOAA.NERRS:apaebwq:1,2014-07-07T00:45:00Z,29.7858,-84.8752,0.0,30.7,2 
NERRS,ioos:station:NOAA.NERRS:apaebwq:1,2014-07-07T01:45:00Z,29.7858,-84.8752,0.0,30.4,2 
NERRS,ioos:station:NOAA.NERRS:apaebwq:1,2014-07-07T02:45:00Z,29.7858,-84.8752,0.0,30.1,2 
NERRS,ioos:station:NOAA.NERRS:apaebwq:1,2014-07-07T03:45:00Z,29.7858,-84.8752,0.0,29.9,2 
NERRS,ioos:station:NOAA.NERRS:apaebwq:1,2014-07-07T04:45:00Z,29.7858,-84.8752,0.0,29.7,2 
NERRS,ioos:station:NOAA.NERRS:apaebwq:1,2014-07-07T05:45:00Z,29.7858,-84.8752,0.0,29.8,2 
NERRS,ioos:station:NOAA.NERRS:apaebwq:1,2014-07-07T06:45:00Z,29.7858,-84.8752,0.0,29.7,2 
NERRS,ioos:station:NOAA.NERRS:apaebwq:1,2014-07-07T07:45:00Z,29.7858,-84.8752,0.0,29.7,2 
NERRS,ioos:station:NOAA.NERRS:apaebwq:1,2014-07-07T08:45:00Z,29.7858,-84.8752,0.0,29.6,2 
NERRS,ioos:station:NOAA.NERRS:apaebwq:1,2014-07-07T09:45:00Z,29.7858,-84.8752,0.0,29.6,2 
NERRS,ioos:station:NOAA.NERRS:apaebwq:1,2014-07-07T10:45:00Z,29.7858,-84.8752,0.0,29.5,2 
NERRS,ioos:station:NOAA.NERRS:apaebwq:1,2014-07-07T11:45:00Z,29.7858,-84.8752,0.0,29.6,2 
NERRS,ioos:station:NOAA.NERRS:apaebwq:1,2014-07-07T12:45:00Z,29.7858,-84.8752,0.0,29.5,2 
NERRS,ioos:station:NOAA.NERRS:apaebwq:1,2014-07-07T13:45:00Z,29.7858,-84.8752,0.0,29.3,2 
NERRS,ioos:station:NOAA.NERRS:apaebwq:1,2014-07-07T14:45:00Z,29.7858,-84.8752,0.0,28.9,2 
NERRS,ioos:station:NOAA.NERRS:apaebwq:1,2014-07-07T16:45:00Z,29.7858,-84.8752,0.0,29.2,2 
NERRS,ioos:station:NOAA.NERRS:apaebwq:1,2014-07-07T17:45:00Z,29.7858,-84.8752,0.0,29.6,2 
NERRS,ioos:station:NOAA.NERRS:apaebwq:1,2014-07-07T19:45:00Z,29.7858,-84.8752,0.0,30.8,2 
NERRS,ioos:station:NOAA.NERRS:apaebwq:1,2014-07-07T22:45:00Z,29.7858,-84.8752,0.0,31.3,2 
NERRS,ioos:station:NOAA.NERRS:apaebwq:1,2014-07-07T23:45:00Z,29.7858,-84.8752,0.0,31.1,2 
NERRS,ioos:station:NOAA.NERRS:apaebwq:1,2014-07-08T00:45:00Z,29.7858,-84.8752,0.0,31.0,2 
NERRS,ioos:station:NOAA.NERRS:apaebwq:1,2014-07-08T01:45:00Z,29.7858,-84.8752,0.0,30.7,2 
NERRS,ioos:station:NOAA.NERRS:apaebwq:1,2014-07-08T02:45:00Z,29.7858,-84.8752,0.0,30.4,2 
NERRS,ioos:station:NOAA.NERRS:apaebwq:1,2014-07-08T03:45:00Z,29.7858,-84.8752,0.0,30.3,2 
NERRS,ioos:station:NOAA.NERRS:apaebwq:1,2014-07-08T04:45:00Z,29.7858,-84.8752,0.0,30.0,2 
NERRS,ioos:station:NOAA.NERRS:apaebwq:1,2014-07-08T05:45:00Z,29.7858,-84.8752,0.0,29.8,2 
NERRS,ioos:station:NOAA.NERRS:apaebwq:1,2014-07-08T06:45:00Z,29.7858,-84.8752,0.0,29.7,2 
NERRS,ioos:station:NOAA.NERRS:apaebwq:1,2014-07-08T07:45:00Z,29.7858,-84.8752,0.0,29.6,2 
NERRS,ioos:station:NOAA.NERRS:apaebwq:1,2014-07-08T08:45:00Z,29.7858,-84.8752,0.0,29.5,2 
NERRS,ioos:station:NOAA.NERRS:apaebwq:1,2014-07-08T10:45:00Z,29.7858,-84.8752,0.0,29.5,2 
NERRS,ioos:station:NOAA.NERRS:apaebwq:1,2014-07-08T11:45:00Z,29.7858,-84.8752,0.0,29.4,2 
NERRS,ioos:station:NOAA.NERRS:apaebwq:1,2014-07-08T12:45:00Z,29.7858,-84.8752,0.0,29.4,2 
NERRS,ioos:station:NOAA.NERRS:apaebwq:1,2014-07-08T13:45:00Z,29.7858,-84.8752,0.0,29.3,2 
NERRS,ioos:station:NOAA.NERRS:apaebwq:1,2014-07-08T14:45:00Z,29.7858,-84.8752,0.0,29.2,2 
NERRS,ioos:station:NOAA.NERRS:apaebwq:1,2014-07-08T15:45:00Z,29.7858,-84.8752,0.0,29.2,2 
NERRS,ioos:station:NOAA.NERRS:apaebwq:1,2014-07-08T16:45:00Z,29.7858,-84.8752,0.0,29.2,2 
NERRS,ioos:station:NOAA.NERRS:apaebwq:1,2014-07-08T17:45:00Z,29.7858,-84.8752,0.0,29.2,2 
NERRS,ioos:station:NOAA.NERRS:apaebwq:1,2014-07-08T18:45:00Z,29.7858,-84.8752,0.0,29.4,2 
NERRS,ioos:station:NOAA.NERRS:apaebwq:1,2014-07-08T19:45:00Z,29.7858,-84.8752,0.0,30.3,2 
NERRS,ioos:station:NOAA.NERRS:apaebwq:1,2014-07-08T20:45:00Z,29.7858,-84.8752,0.0,31.1,2 
NERRS,ioos:station:NOAA.NERRS:apaebwq:1,2014-07-08T22:45:00Z,29.7858,-84.8752,0.0,31.3,2 
NERRS,ioos:station:NOAA.NERRS:apaebwq:1,2014-07-09T00:45:00Z,29.7858,-84.8752,0.0,30.8,2 
NERRS,ioos:station:NOAA.NERRS:apaebwq:1,2014-07-09T01:45:00Z,29.7858,-84.8752,0.0,30.6,2 
NERRS,ioos:station:NOAA.NERRS:apaebwq:1,2014-07-09T02:45:00Z,29.7858,-84.8752,0.0,30.4,2 
NERRS,ioos:station:NOAA.NERRS:apaebwq:1,2014-07-09T03:45:00Z,29.7858,-84.8752,0.0,30.1,2 
NERRS,ioos:station:NOAA.NERRS:apaebwq:1,2014-07-09T04:45:00Z,29.7858,-84.8752,0.0,29.9,2 
NERRS,ioos:station:NOAA.NERRS:apaebwq:1,2014-07-09T05:45:00Z,29.7858,-84.8752,0.0,29.7,2 
NERRS,ioos:station:NOAA.NERRS:apaebwq:1,2014-07-09T06:45:00Z,29.7858,-84.8752,0.0,29.6,2 
NERRS,ioos:station:NOAA.NERRS:apaebwq:1,2014-07-09T07:45:00Z,29.7858,-84.8752,0.0,29.5,2 
NERRS,ioos:station:NOAA.NERRS:apaebwq:1,2014-07-09T08:45:00Z,29.7858,-84.8752,0.0,29.4,2 
NERRS,ioos:station:NOAA.NERRS:apaebwq:1,2014-07-09T09:45:00Z,29.7858,-84.8752,0.0,29.3,2 
NERRS,ioos:station:NOAA.NERRS:apaebwq:1,2014-07-09T10:45:00Z,29.7858,-84.8752,0.0,29.3,2 
NERRS,ioos:station:NOAA.NERRS:apaebwq:1,2014-07-09T11:45:00Z,29.7858,-84.8752,0.0,29.3,2 
NERRS,ioos:station:NOAA.NERRS:apaebwq:1,2014-07-09T12:45:00Z,29.7858,-84.8752,0.0,29.3,2 
NERRS,ioos:station:NOAA.NERRS:apaebwq:1,2014-07-09T14:45:00Z,29.7858,-84.8752,0.0,28.9,2 
NERRS,ioos:station:NOAA.NERRS:apaebwq:1,2014-07-09T16:45:00Z,29.7858,-84.8752,0.0,28.9,2 
NERRS,ioos:station:NOAA.NERRS:apaebwq:1,2014-07-09T17:45:00Z,29.7858,-84.8752,0.0,29.9,2 
NERRS,ioos:station:NOAA.NERRS:apaebwq:1,2014-07-09T19:45:00Z,29.7858,-84.8752,0.0,29.4,2 
NERRS,ioos:station:NOAA.NERRS:apaebwq:1,2014-07-09T20:45:00Z,29.7858,-84.8752,0.0,29.8,2 
NERRS,ioos:station:NOAA.NERRS:apaebwq:1,2014-07-09T21:45:00Z,29.7858,-84.8752,0.0,30.0,2 
NERRS,ioos:station:NOAA.NERRS:apaebwq:1,2014-07-09T22:45:00Z,29.7858,-84.8752,0.0,30.1,2 
NERRS,ioos:station:NOAA.NERRS:apaebwq:1,2014-07-09T23:45:00Z,29.7858,-84.8752,0.0,30.0,2 
NERRS,ioos:station:NOAA.NERRS:apaebwq:1,2014-07-10T00:45:00Z,29.7858,-84.8752,0.0,29.9,2 
NERRS,ioos:station:NOAA.NERRS:apaebwq:1,2014-07-10T02:45:00Z,29.7858,-84.8752,0.0,29.6,2 
NERRS,ioos:station:NOAA.NERRS:apaebwq:1,2014-07-10T03:45:00Z,29.7858,-84.8752,0.0,29.5,2 
NERRS,ioos:station:NOAA.NERRS:apaebwq:1,2014-07-10T04:45:00Z,29.7858,-84.8752,0.0,29.3,2 
NERRS,ioos:station:NOAA.NERRS:apaebwq:1,2014-07-10T05:45:00Z,29.7858,-84.8752,0.0,29.0,2 
NERRS,ioos:station:NOAA.NERRS:apaebwq:1,2014-07-10T06:45:00Z,29.7858,-84.8752,0.0,28.9,2 
NERRS,ioos:station:NOAA.NERRS:apaebwq:1,2014-07-10T07:45:00Z,29.7858,-84.8752,0.0,28.8,2 
NERRS,ioos:station:NOAA.NERRS:apaebwq:1,2014-07-10T09:45:00Z,29.7858,-84.8752,0.0,28.8,2 
NERRS,ioos:station:NOAA.NERRS:apaebwq:1,2014-07-10T10:45:00Z,29.7858,-84.8752,0.0,28.7,2 
NERRS,ioos:station:NOAA.NERRS:apaebwq:1,2014-07-10T11:45:00Z,29.7858,-84.8752,0.0,28.5,2 
NERRS,ioos:station:NOAA.NERRS:apaebwq:1,2014-07-10T12:45:00Z,29.7858,-84.8752,0.0,28.6,2 
NERRS,ioos:station:NOAA.NERRS:apaebwq:1,2014-07-10T13:45:00Z,29.7858,-84.8752,0.0,28.6,2 
NERRS,ioos:station:NOAA.NERRS:apaebwq:1,2014-07-10T14:45:00Z,29.7858,-84.8752,0.0,28.7,2 
NERRS,ioos:station:NOAA.NERRS:apaebwq:1,2014-07-10T15:45:00Z,29.7858,-84.8752,0.0,28.8,2 
NERRS,ioos:station:NOAA.NERRS:apaebwq:1,2014-07-10T17:45:00Z,29.7858,-84.8752,0.0,28.7,2 
NERRS,ioos:station:NOAA.NERRS:apaebwq:1,2014-07-10T18:45:00Z,29.7858,-84.8752,0.0,28.7,2 
NERRS,ioos:station:NOAA.NERRS:apaebwq:1,2014-07-10T20:45:00Z,29.7858,-84.8752,0.0,28.7,2 
NERRS,ioos:station:NOAA.NERRS:apaebwq:1,2014-07-10T21:45:00Z,29.7858,-84.8752,0.0,28.8,2 
NERRS,ioos:station:NOAA.NERRS:apaebwq:1,2014-07-10T23:45:00Z,29.7858,-84.8752,0.0,29.0,2 
NERRS,ioos:station:NOAA.NERRS:apaebwq:1,2014-07-11T00:45:00Z,29.7858,-84.8752,0.0,29.0,2 
NERRS,ioos:station:NOAA.NERRS:apaebwq:1,2014-07-11T02:45:00Z,29.7858,-84.8752,0.0,28.8,2 
NERRS,ioos:station:NOAA.NERRS:apaebwq:1,2014-07-11T03:45:00Z,29.7858,-84.8752,0.0,28.7,2 
NERRS,ioos:station:NOAA.NERRS:apaebwq:1,2014-07-11T04:45:00Z,29.7858,-84.8752,0.0,28.6,2 
NERRS,ioos:station:NOAA.NERRS:apaebwq:1,2014-07-11T06:45:00Z,29.7858,-84.8752,0.0,28.4,2 
NERRS,ioos:station:NOAA.NERRS:apaebwq:1,2014-07-11T07:45:00Z,29.7858,-84.8752,0.0,28.3,2 
NERRS,ioos:station:NOAA.NERRS:apaebwq:1,2014-07-11T08:45:00Z,29.7858,-84.8752,0.0,28.2,2 
NERRS,ioos:station:NOAA.NERRS:apaebwq:1,2014-07-11T09:45:00Z,29.7858,-84.8752,0.0,28.2,2 
NERRS,ioos:station:NOAA.NERRS:apaebwq:1,2014-07-11T10:45:00Z,29.7858,-84.8752,0.0,28.0,2 
NERRS,ioos:station:NOAA.NERRS:apaebwq:1,2014-07-11T11:45:00Z,29.7858,-84.8752,0.0,27.9,2 
NERRS,ioos:station:NOAA.NERRS:apaebwq:1,2014-07-11T12:45:00Z,29.7858,-84.8752,0.0,28.0,2 
NERRS,ioos:station:NOAA.NERRS:apaebwq:1,2014-07-11T13:45:00Z,29.7858,-84.8752,0.0,28.1,2 
NERRS,ioos:station:NOAA.NERRS:apaebwq:1,2014-07-11T14:45:00Z,29.7858,-84.8752,0.0,28.1,2 
NERRS,ioos:station:NOAA.NERRS:apaebwq:1,2014-07-11T15:45:00Z,29.7858,-84.8752,0.0,28.1,2 
NERRS,ioos:station:NOAA.NERRS:apaebwq:1,2014-07-11T16:45:00Z,29.7858,-84.8752,0.0,28.3,2 
NERRS,ioos:station:NOAA.NERRS:apaebwq:1,2014-07-11T17:45:00Z,29.7858,-84.8752,0.0,28.5,2 
NERRS,ioos:station:NOAA.NERRS:apaebwq:1,2014-07-11T18:45:00Z,29.7858,-84.8752,0.0,28.5,2 
NERRS,ioos:station:NOAA.NERRS:apaebwq:1,2014-07-11T19:45:00Z,29.7858,-84.8752,0.0,28.9,2 
NERRS,ioos:station:NOAA.NERRS:apaebwq:1,2014-07-11T20:45:00Z,29.7858,-84.8752,0.0,28.5,2 
NERRS,ioos:station:NOAA.NERRS:apaebwq:1,2014-07-11T22:45:00Z,29.7858,-84.8752,0.0,29.7,2 
NERRS,ioos:station:NOAA.NERRS:apaebwq:1,2014-07-11T23:45:00Z,29.7858,-84.8752,0.0,29.8,2 
NERRS,ioos:station:NOAA.NERRS:apaebwq:1,2014-07-12T01:45:00Z,29.7858,-84.8752,0.0,29.6,2 
NERRS,ioos:station:NOAA.NERRS:apaebwq:1,2014-07-12T02:45:00Z,29.7858,-84.8752,0.0,29.5,2 
NERRS,ioos:station:NOAA.NERRS:apaebwq:1,2014-07-12T03:45:00Z,29.7858,-84.8752,0.0,29.6,2 
NERRS,ioos:station:NOAA.NERRS:apaebwq:1,2014-07-12T04:45:00Z,29.7858,-84.8752,0.0,29.5,2 
NERRS,ioos:station:NOAA.NERRS:apaebwq:1,2014-07-12T05:45:00Z,29.7858,-84.8752,0.0,29.3,2 
NERRS,ioos:station:NOAA.NERRS:apaebwq:1,2014-07-12T06:45:00Z,29.7858,-84.8752,0.0,29.3,2 
NERRS,ioos:station:NOAA.NERRS:apaebwq:1,2014-07-12T07:45:00Z,29.7858,-84.8752,0.0,29.3,2 
NERRS,ioos:station:NOAA.NERRS:apaebwq:1,2014-07-12T08:45:00Z,29.7858,-84.8752,0.0,29.1,2 
NERRS,ioos:station:NOAA.NERRS:apaebwq:1,2014-07-12T09:45:00Z,29.7858,-84.8752,0.0,28.7,2 
NERRS,ioos:station:NOAA.NERRS:apaebwq:1,2014-07-12T10:45:00Z,29.7858,-84.8752,0.0,28.7,2 
NERRS,ioos:station:NOAA.NERRS:apaebwq:1,2014-07-12T11:45:00Z,29.7858,-84.8752,0.0,28.7,2 
NERRS,ioos:station:NOAA.NERRS:apaebwq:1,2014-07-12T12:45:00Z,29.7858,-84.8752,0.0,28.7,2 
NERRS,ioos:station:NOAA.NERRS:apaebwq:1,2014-07-12T13:45:00Z,29.7858,-84.8752,0.0,28.4,2 
NERRS,ioos:station:NOAA.NERRS:apaebwq:1,2014-07-12T14:45:00Z,29.7858,-84.8752,0.0,28.4,2 
NERRS,ioos:station:NOAA.NERRS:apaebwq:1,2014-07-12T15:45:00Z,29.7858,-84.8752,0.0,28.5,2 
NERRS,ioos:station:NOAA.NERRS:apaebwq:1,2014-07-12T17:45:00Z,29.7858,-84.8752,0.0,28.9,2 
NERRS,ioos:station:NOAA.NERRS:apaebwq:1,2014-07-12T19:45:00Z,29.7858,-84.8752,0.0,29.2,2 
NERRS,ioos:station:NOAA.NERRS:apaebwq:1,2014-07-12T20:45:00Z,29.7858,-84.8752,0.0,29.0,2 
NERRS,ioos:station:NOAA.NERRS:apaebwq:1,2014-07-12T21:45:00Z,29.7858,-84.8752,0.0,29.2,2 
NERRS,ioos:station:NOAA.NERRS:apaebwq:1,2014-07-12T22:45:00Z,29.7858,-84.8752,0.0,29.3,2 
NERRS,ioos:station:NOAA.NERRS:apaebwq:1,2014-07-12T23:45:00Z,29.7858,-84.8752,0.0,29.4,2 
NERRS,ioos:station:NOAA.NERRS:apaebwq:1,2014-07-13T00:45:00Z,29.7858,-84.8752,0.0,29.6,2 
NERRS,ioos:station:NOAA.NERRS:apaebwq:1,2014-07-13T01:45:00Z,29.7858,-84.8752,0.0,29.5,2 
NERRS,ioos:station:NOAA.NERRS:apaebwq:1,2014-07-13T02:45:00Z,29.7858,-84.8752,0.0,29.2,2 
NERRS,ioos:station:NOAA.NERRS:apaebwq:1,2014-07-13T03:45:00Z,29.7858,-84.8752,0.0,29.2,2 
NERRS,ioos:station:NOAA.NERRS:apaebwq:1,2014-07-13T04:45:00Z,29.7858,-84.8752,0.0,29.1,2 
NERRS,ioos:station:NOAA.NERRS:apaebwq:1,2014-07-13T06:45:00Z,29.7858,-84.8752,0.0,29.0,2 
NERRS,ioos:station:NOAA.NERRS:apaebwq:1,2014-07-13T07:45:00Z,29.7858,-84.8752,0.0,28.9,2 
NERRS,ioos:station:NOAA.NERRS:apaebwq:1,2014-07-13T08:45:00Z,29.7858,-84.8752,0.0,28.8,2 
NERRS,ioos:station:NOAA.NERRS:apaebwq:1,2014-07-13T09:45:00Z,29.7858,-84.8752,0.0,28.6,2 
NERRS,ioos:station:NOAA.NERRS:apaebwq:1,2014-07-13T10:45:00Z,29.7858,-84.8752,0.0,28.6,2 
NERRS,ioos:station:NOAA.NERRS:apaebwq:1,2014-07-13T11:45:00Z,29.7858,-84.8752,0.0,28.7,2 
NERRS,ioos:station:NOAA.NERRS:apaebwq:1,2014-07-13T12:45:00Z,29.7858,-84.8752,0.0,28.5,2 
NERRS,ioos:station:NOAA.NERRS:apaebwq:1,2014-07-13T13:45:00Z,29.7858,-84.8752,0.0,28.1,2 
NERRS,ioos:station:NOAA.NERRS:apaebwq:1,2014-07-13T14:45:00Z,29.7858,-84.8752,0.0,28.3,2 
NERRS,ioos:station:NOAA.NERRS:apaebwq:1,2014-07-13T15:45:00Z,29.7858,-84.8752,0.0,28.4,2 
NERRS,ioos:station:NOAA.NERRS:apaebwq:1,2014-07-13T16:45:00Z,29.7858,-84.8752,0.0,28.4,2 
NERRS,ioos:station:NOAA.NERRS:apaebwq:1,2014-07-13T17:45:00Z,29.7858,-84.8752,0.0,28.8,2 
NERRS,ioos:station:NOAA.NERRS:apaebwq:1,2014-07-13T18:45:00Z,29.7858,-84.8752,0.0,28.9,2 
NERRS,ioos:station:NOAA.NERRS:apaebwq:1,2014-07-13T19:45:00Z,29.7858,-84.8752,0.0,29.0,2 
NERRS,ioos:station:NOAA.NERRS:apaebwq:1,2014-07-13T20:45:00Z,29.7858,-84.8752,0.0,29.1,2 
NERRS,ioos:station:NOAA.NERRS:apaebwq:1,2014-07-13T22:45:00Z,29.7858,-84.8752,0.0,29.1,2 
NERRS,ioos:station:NOAA.NERRS:apaebwq:1,2014-07-14T00:45:00Z,29.7858,-84.8752,0.0,29.6,2 
NERRS,ioos:station:NOAA.NERRS:apaebwq:1,2014-07-14T01:45:00Z,29.7858,-84.8752,0.0,29.7,2 
NERRS,ioos:station:NOAA.NERRS:apaebwq:1,2014-07-14T02:45:00Z,29.7858,-84.8752,0.0,29.5,2 
NERRS,ioos:station:NOAA.NERRS:apaebwq:1,2014-07-14T03:45:00Z,29.7858,-84.8752,0.0,29.2,2 
NERRS,ioos:station:NOAA.NERRS:apaebwq:1,2014-07-14T04:45:00Z,29.7858,-84.8752,0.0,29.3,2 
NERRS,ioos:station:NOAA.NERRS:apaebwq:1,2014-07-14T06:45:00Z,29.7858,-84.8752,0.0,29.5,2 
NERRS,ioos:station:NOAA.NERRS:apaebwq:1,2014-07-14T07:45:00Z,29.7858,-84.8752,0.0,29.2,2 
NERRS,ioos:station:NOAA.NERRS:apaebwq:1,2014-07-14T08:45:00Z,29.7858,-84.8752,0.0,29.1,2 
NERRS,ioos:station:NOAA.NERRS:apaebwq:1,2014-07-14T09:45:00Z,29.7858,-84.8752,0.0,29.0,2 
NERRS,ioos:station:NOAA.NERRS:apaebwq:1,2014-07-14T10:45:00Z,29.7858,-84.8752,0.0,28.8,2 
NERRS,ioos:station:NOAA.NERRS:apaebwq:1,2014-07-14T11:45:00Z,29.7858,-84.8752,0.0,28.8,2 
NERRS,ioos:station:NOAA.NERRS:apaebwq:1,2014-07-14T12:45:00Z,29.7858,-84.8752,0.0,28.8,2 
NERRS,ioos:station:NOAA.NERRS:apaebwq:1,2014-07-14T13:45:00Z,29.7858,-84.8752,0.0,28.7,2 
NERRS,ioos:station:NOAA.NERRS:apaebwq:1,2014-07-14T14:45:00Z,29.7858,-84.8752,0.0,28.8,2 
NERRS,ioos:station:NOAA.NERRS:apaebwq:1,2014-07-14T15:45:00Z,29.7858,-84.8752,0.0,28.8,2 
NERRS,ioos:station:NOAA.NERRS:apaebwq:1,2014-07-14T16:45:00Z,29.7858,-84.8752,0.0,28.9,2 
NERRS,ioos:station:NOAA.NERRS:apaebwq:1,2014-07-14T17:45:00Z,29.7858,-84.8752,0.0,28.9,2 
NERRS,ioos:station:NOAA.NERRS:apaebwq:1,2014-07-14T19:45:00Z,29.7858,-84.8752,0.0,30.1,2 
NERRS,ioos:station:NOAA.NERRS:apaebwq:1,2014-07-14T20:45:00Z,29.7858,-84.8752,0.0,30.3,2 
NERRS,ioos:station:NOAA.NERRS:apaebwq:1,2014-07-14T21:45:00Z,29.7858,-84.8752,0.0,30.3,2 
NERRS,ioos:station:NOAA.NERRS:apaebwq:1,2014-07-14T22:45:00Z,29.7858,-84.8752,0.0,30.4,2 
NERRS,ioos:station:NOAA.NERRS:apaebwq:1,2014-07-15T00:45:00Z,29.7858,-84.8752,0.0,30.5,2 
NERRS,ioos:station:NOAA.NERRS:apaebwq:1,2014-07-15T02:45:00Z,29.7858,-84.8752,0.0,30.4,2 
NERRS,ioos:station:NOAA.NERRS:apaebwq:1,2014-07-15T03:45:00Z,29.7858,-84.8752,0.0,30.4,2 
NERRS,ioos:station:NOAA.NERRS:apaebwq:1,2014-07-15T04:45:00Z,29.7858,-84.8752,0.0,30.3,2 
NERRS,ioos:station:NOAA.NERRS:apaebwq:1,2014-07-15T05:45:00Z,29.7858,-84.8752,0.0,30.2,2 
NERRS,ioos:station:NOAA.NERRS:apaebwq:1,2014-07-15T06:45:00Z,29.7858,-84.8752,0.0,30.1,2 
NERRS,ioos:station:NOAA.NERRS:apaebwq:1,2014-07-15T07:45:00Z,29.7858,-84.8752,0.0,30.1,2 
NERRS,ioos:station:NOAA.NERRS:apaebwq:1,2014-07-15T08:45:00Z,29.7858,-84.8752,0.0,29.8,2 